Weather History for KAQW - July, 2012

Change the Weather History Date:

Tuesday, July 10, 2012

  Actual Average Record
Temperature  
Mean Temperature 64 °F -  
Max Temperature 82 °F 77 °F 87 °F (2005)
Min Temperature 46 °F 54 °F 46 °F (2012)
Degree Days  
Heating Degree Days 1    
Growing Degree Days 14 (Base 50)    
Moisture  
Dew Point 48 °F    
Average Humidity 60    
Maximum Humidity 93    
Minimum Humidity 28    
Precipitation  
Precipitation 0.00 in - - ()
Sea Level Pressure  
Sea Level Pressure 30.06 in    
Wind  
Wind Speed 0 mph (WSW)    
Max Wind Speed 7 mph    
Max Gust Speed -    
Visibility 10 miles    
Events      
Averages and records for this station are not official NWS values.
T = Trace of Precipitation, MM = Missing Value Source: NWS Daily Summary

Daily Weather History Graph

Daily Weather History Graph

Search for Another Location

Airport or City:

Trip Planner

Search our weather history database for the weather conditions in past years. The results will help you decide how hot, cold, wet, or windy it might be!

Date:

Astronomy

Jul. 10, 2012 Rise Set
Actual Time 5:24 AM EDT 8:31 PM EDT
Civil Twilight 4:50 AM EDT 9:05 PM EDT
Nautical Twilight 4:06 AM EDT 9:49 PM EDT
Astronomical Twilight 3:13 AM EDT 10:41 PM EDT
Moon No Moon Rise 12:59 PM EDT (7/10)
Length of Visible Light 16h 15m
Length of Day
15h 06m
Waning Gibbous, 54% of the Moon is Illuminated
Jul 10
Waning Gibbous
Jul 10
Last Quarter
Jul 19
New
Jul 26
First Quarter
Aug 1
Full

Hourly Weather History & Observations

Time (EDT) Temp. Dew Point Humidity Pressure Visibility Wind Dir Wind Speed Gust Speed Precip Events Conditions
12:52 AM 52.0 °F 48.9 °F 89% 30.03 in 10.0 mi Calm Calm - N/A   Clear
1:52 AM 50.0 °F 46.9 °F 89% 30.03 in 10.0 mi Calm Calm - N/A   Clear
2:52 AM 48.0 °F 45.0 °F 89% 30.04 in 10.0 mi Calm Calm - N/A   Clear
3:52 AM 48.0 °F 45.0 °F 89% 30.05 in 10.0 mi Calm Calm - N/A   Clear
4:52 AM 46.9 °F 45.0 °F 93% 30.06 in 10.0 mi Calm Calm - N/A   Clear
6:52 AM 52.0 °F 48.0 °F 86% 30.08 in 10.0 mi Calm Calm - N/A   Mostly Cloudy
7:11 AM 53.6 °F 48.2 °F 82% 30.08 in 10.0 mi Calm Calm - N/A   Scattered Clouds
7:52 AM 57.9 °F 46.9 °F 67% 30.08 in 10.0 mi Calm Calm - N/A   Partly Cloudy
8:52 AM 62.1 °F 46.9 °F 58% 30.08 in 10.0 mi Calm Calm - N/A   Mostly Cloudy
9:52 AM 68.0 °F 51.1 °F 55% 30.08 in 10.0 mi Calm Calm - N/A   Clear
10:52 AM 75.0 °F 46.0 °F 36% 30.07 in 10.0 mi Calm Calm - N/A   Clear
11:52 AM 77.0 °F 46.9 °F 34% 30.07 in 10.0 mi Calm Calm - N/A   Mostly Cloudy
12:52 PM 78.1 °F 42.1 °F 28% 30.06 in 10.0 mi Calm Calm - N/A   Clear
1:52 PM 80.1 °F 46.0 °F 30% 30.04 in 10.0 mi Calm Calm - N/A   Partly Cloudy
2:52 PM 78.1 °F 45.0 °F 31% 30.04 in 10.0 mi Calm Calm - N/A   Clear
3:52 PM 81.0 °F 46.0 °F 29% 30.01 in 10.0 mi West 4.6 mph - N/A   Clear
4:52 PM 82.0 °F 46.0 °F 28% 30.01 in 10.0 mi West 6.9 mph - N/A   Clear
5:52 PM 77.0 °F 48.9 °F 37% 30.02 in 10.0 mi Calm Calm - N/A   Overcast
6:52 PM 77.0 °F 51.1 °F 40% 30.03 in 10.0 mi West 3.5 mph - N/A   Partly Cloudy
7:52 PM 72.0 °F 52.0 °F 49% 30.05 in 10.0 mi SW 3.5 mph - N/A   Partly Cloudy
8:52 PM 64.9 °F 55.0 °F 70% 30.07 in 10.0 mi Calm Calm - N/A   Clear
9:52 PM 64.0 °F 54.0 °F 70% 30.09 in 10.0 mi Calm Calm - N/A   Mostly Cloudy
10:52 PM 61.0 °F 55.0 °F 81% 30.11 in 10.0 mi Calm Calm - N/A   Mostly Cloudy
11:52 PM 57.9 °F 54.0 °F 87% 30.12 in 10.0 mi Calm Calm - N/A   Partly Cloudy